Location: �couen
(49.0206°N, 2.3831°E)
Time: 22:03:06
(UTC+00:00)

ATLAS 3B R/B - Pass Details

Date: 23 May 2022
Orbit: 976 x 1218 km, 63.8° (Epoch: 20 June)

Event Time Altitude Azimuth Distance (km) Brightness Sun altitude
Rises 00:06:07 0° 314° (NW) 3,981 6.3 -20.3°
Reaches altitude 10° 00:09:06 10° 305° (NW) 3,053 5.4 -20.3°
Maximum altitude 00:15:16 31° 247° (WSW) 1,964 3.8 -20.2°
Enters shadow 00:17:26 26° 219° (SW) 2,143 3.8 -20.1°
